Location: Pasarilla del Rebollar
(40.6790°N, 5.0062°W)
Time: 11:30:42
(UTC+00:00)

CZ-4C R/B - Pass Details

Date: 22 April 2026
Orbit: 475 x 1502 km, 63.4° (Epoch: 15 May)

Event Time Altitude Azimuth Distance (km) Brightness Sun altitude
Exits shadow 03:06:55 11° 310° (NW) 2,041 4.1 -24.4°
Maximum altitude 03:08:46 13° 334° (NNW) 2,002 4.3 -24.1°
Drops below altitude 10° 03:11:17 10° 2° (N) 2,370 5.1 -23.8°
Sets 03:15:33 0° 28° (NNE) 3,574 6.7 -23.2°
